Location: Rounton
(54.4000°N, 1.3500°W)
Time: 15:00:57
(UTC+00:00)

Transit 2A Rocket - Pass Details

Date: 07 December 2021
Orbit: 584 x 918 km, 66.7° (Epoch: 21 January)

Event Time Altitude Azimuth Distance (km) Brightness Sun altitude
Rises 12:49:46 0° 309° (NW) 3,553 8.2 12.1°
Reaches altitude 10° 12:52:34 10° 319° (NW) 2,621 7.5 12.0°
Maximum altitude 12:58:06 33° 23° (NNE) 1,484 6.1 11.8°
Drops below altitude 10° 13:03:31 10° 86° (E) 2,565 7.6 11.6°
Sets 13:06:13 0° 96° (E) 3,468 8.3 11.5°
